Regional Weather Roundup
Issued by NWS Newport/Morehead, NC

Home | Current Version | Previous Version | Text Only | Print | Product List | Glossary On
Versions: 1 2 3 4 5 6 7 8 9 10 11 12 13 14 15 16 17 18 19 20 21 22 23 24 25 26 27 28 29 30 31 32 33 34 35 36 37 38 39 40 41 42 43 44 45 46 47 48 49 50
000
ASUS42 KMHX 140522
RWRMHX
WEATHER ROUNDUP FOR EASTERN NORTH CAROLINA
NATIONAL WEATHER SERVICE NEWPORT/MOREHEAD CITY NC
100 AM EDT MON JUL 14 2014

NOTE: "FAIR" INDICATES FEW OR NO CLOUDS BELOW 12,000 FEET
WITH NO SIGNIFICANT WEATHER AND/OR OBSTRUCTIONS TO VISIBILITY

NCZ015>017-031-032-045>047-102-103-140600-
NORTH COAST

CITY           SKY/WX    TMP DP  RH WIND       PRES   REMARKS
EDENTON        CLEAR     77  74  89 SW8       30.03S
ELIZABETH CITY PTCLDY    78  73  84 S10       30.03F
KITTY HAWK     PTCLDY    78  73  85 SW8       30.03F
MANTEO         NOT AVBL

$$

NCZ045>047-081-094-103-104-140600-
CENTRAL COAST

CITY           SKY/WX    TMP DP  RH WIND       PRES   REMARKS
FRISCO         PTCLDY    80  75  84 SW12      30.06F
SWANQUARTER      N/A     81 N/A N/A SW10G17   30.00F

$$

NCZ095-097-098-100-101-140600-
SOUTHERN COAST

CITY           SKY/WX    TMP DP  RH WIND       PRES   REMARKS
BEAUFORT       PTCLDY    80  74  81 SW15      30.06S
CEDAR ISLAND     N/A     79 N/A N/A S6        30.09S
JACKSONVILLE   CLEAR     75  73  93 SW3       30.05S
NEWPORT        NOT AVBL
PINEY ISLAND   CLEAR     78  76  93 S5        30.06S
WILMINGTON     CLEAR     77  73  87 S5        30.06F


$$

NCZ011>013-027>030-043-044-078>080-089-090>093-098-140600-
COASTAL PLAIN

CITY           SKY/WX    TMP DP  RH WIND       PRES   REMARKS
AHOSKIE        CLEAR     75  72  89 S7        30.02F
CLINTON        CLEAR     75  74  98 CALM      30.05F
ELIZABETHTOWN  CLEAR     75  73  94 S5        30.05F
GOLDSBORO      CLEAR     76  76  98 SW7       30.03S
GREENVILLE     CLEAR     77  73  88 SW8       30.05F
HAVELOCK       PTCLDY    76  72  87 W3        30.07S
KENANSVILLE    CLEAR     75  72  90 CALM      30.06S
KINSTON        CLEAR     76  73  91 S7        30.05S
NEW BERN       CLEAR     77  73  87 S3        30.06F
RICHLANDS      CLEAR     73  70  88 S7        30.05F
ROANOKE RAPIDS NOT AVBL
ROCKY MOUNT    CLEAR     77  73  87 S8        30.03F
WASHINGTON     CLEAR     76  73  90 SW6       30.04F
WHITEVILLE     CLEAR     76  73  90 S5        30.06S

$$

AMZ130-135-150-152-154-156-158-170-250-252-270-ANZ085-086-088-633-658-670-140600-
MARINE OBSERVATIONS

STATION/POSITION TIME  TEMP    WIND        PRES    WAVE   SWELL
                       AIR SEA DIR/SP/G            HT/PER HT/PER
                 (UTC) (F)     (DEG/KT/KT) (MB)    (FT/S) (FT/S)
CHESAPEAKE LIGHT NOT AVBL
BUOY 44014       0500   77 75  190/ 14/ 16 1016.4    2/ 8   2/ 8
DUCK             0500   79 65  210/ 11/ 15 1016.3
2E DUCK          0500                        N/A     2/ 8
OREGON INLET     0500   80 84  200/ 15/ 18 1017.3
BUOY 44095       0500      77                N/A     2/ 8
HATTERAS CG      0500   80 83  200/  9/ 14 1018.4
DIAMOND BUOY     0500          VRB 14/ 16  1017.9    3/ 8   2/ 8
17S OCRACOKE INL NOT AVBL
CAPE LOOKOUT     0500   80     210/ 11/ 13 1017.7
BEAUFORT LAB     0500   80 83  220/  6/ 13 1017.4
30 SE NEW RIVER  0500   80 82  220/ 16/ 17 1018.3    3/ 8   2/ 8
5 SE WRIGHTSVILL 0500   77 82  220/ 16/ 17 1018.3
FRYING PAN BUOY  NOT AVBL
BUOY 41001       NOT AVBL
BUOY 41002       0400   81 83  220/ 10/ 12 1020.4    3/ 8   3/ 8
BUOY 41004       0500   81 82  210/ 14/ 16 1018.2    3/ 8   2/ 8

$$


USA.gov is the U.S. government's official web portal to all federal, state and local government web resources and services.